Torna al catalogo

STARLINK-5905

AttivoComunicazioniVLEO
NORAD 55986·PAYLOAD·🇺🇸 United States

Lanciato Mar 24, 2023 da Cape Canaveral Space Force Station

Loading…

Prossimi Passaggi (prossime 24 ore)

TLE

AggiornatoSource: CelesTrak SupGP

Epoca: Sep 14, 2026, 20:54 UTC

1 55986C 23042A   26257.87131944  .00042039  00000+0  15234-2 0  2574
2 55986  43.0013  71.4759 0001373 276.3783 280.1934 15.27540470    12

Traccia STARLINK-5905 in tempo reale con AllMySat

Download on the App Store